When you browse on this site, cookies collect data to enhance your experience and personalize the content and advertising you see.
Visit our Privacy Policy to learn more. By continuing to use the site, you agree to this use of cookies and data.
  • In Czech Republic
  • List of Countries
  • For 7 days
  • Water Temperature
  • Satellite Maps
  • Weather Map
  • Weather Widgets
  • user-avatar
    Login

    Hourly Weather Kaprun

    Today, 22 May, Wednesday

    Time Temperature Precipitation Wind Pressure Humidity
    00:00 +1°C° 0.5 mm 2 mps 593 mmHg 96%
    01:00 +1°C° 0.5 mm 2 mps 594 mmHg 96%
    02:00 +1°C° 0.3 mm 2 mps 594 mmHg 96%
    03:00 +1°C° 0.3 mm 2 mps 594 mmHg 96%
    04:00 +1°C° 0.3 mm 2 mps 594 mmHg 96%
    05:00 +1°C° 0.4 mm 2 mps 594 mmHg 96%
    06:00 +1°C° 0.4 mm 2 mps 594 mmHg 96%
    07:00 +2°C° 0.4 mm 2 mps 595 mmHg 96%
    08:00 +2°C° 0.3 mm 2 mps 595 mmHg 96%
    09:00 +3°C° 0.3 mm 2 mps 595 mmHg 95%
    10:00 +3°C° 0.3 mm 2 mps 595 mmHg 95%
    11:00 +3°C° 0.1 mm 2 mps 596 mmHg 92%
    12:00 +4°C° 0.1 mm 2 mps 596 mmHg 90%
    13:00 +5°C° 0.1 mm 2 mps 596 mmHg 88%
    14:00 +4°C° 0.1 mm 3 mps 596 mmHg 86%
    15:00 +4°C° 0.1 mm 3 mps 596 mmHg 84%
    16:00 +4°C° 0.1 mm 3 mps 596 mmHg 83%
    17:00 +5°C° 0.1 mm 2 mps 596 mmHg 87%
    18:00 +4°C° 0.1 mm 2 mps 596 mmHg 91%
    19:00 +3°C° 0.1 mm 2 mps 596 mmHg 96%
    20:00 +3°C° 0.1 mm 2 mps 596 mmHg 96%
    21:00 +2°C° 0.1 mm 2 mps 596 mmHg 97%
    22:00 +3°C° 0.1 mm 1 mps 597 mmHg 98%
    23:00 +2°C° 0 mm 1 mps 597 mmHg 98%

    Tomorrow, 23 May, Thursday

    Time Temperature Precipitation Wind Pressure Humidity
    00:00 +2°C° 0 mm 1 mps 597 mmHg 98%
    01:00 +2°C° 0 mm 1 mps 597 mmHg 98%
    02:00 +2°C° 0 mm 1 mps 597 mmHg 98%
    03:00 +1°C° 0 mm 1 mps 597 mmHg 98%
    04:00 +1°C° 0 mm 1 mps 596 mmHg 98%
    05:00 +2°C° 0 mm 1 mps 597 mmHg 95%
    06:00 +2°C° 0 mm 1 mps 597 mmHg 93%
    07:00 +2°C° 0 mm 2 mps 597 mmHg 90%
    08:00 +4°C° 0 mm 2 mps 598 mmHg 83%
    09:00 +5°C° 0 mm 2 mps 598 mmHg 76%
    10:00 +6°C° 0 mm 2 mps 599 mmHg 69%
    11:00 +7°C° 0 mm 2 mps 599 mmHg 67%
    12:00 +8°C° 0 mm 2 mps 599 mmHg 64%
    13:00 +8°C° 0 mm 2 mps 599 mmHg 62%
    14:00 +8°C° 0 mm 2 mps 599 mmHg 63%
    15:00 +8°C° 0 mm 3 mps 598 mmHg 64%
    16:00 +8°C° 0 mm 3 mps 598 mmHg 65%
    17:00 +7°C° 0 mm 2 mps 598 mmHg 71%
    18:00 +5°C° 0 mm 2 mps 597 mmHg 77%
    19:00 +4°C° 0 mm 2 mps 597 mmHg 83%
    20:00 +4°C° 0 mm 1 mps 596 mmHg 87%
    21:00 +2°C° 0 mm 1 mps 596 mmHg 91%
    22:00 +1°C° 0 mm 1 mps 596 mmHg 94%
    23:00 +1°C° 0 mm 1 mps 596 mmHg 91%

    Day after tomorrow, 24 May, Friday

    Time Temperature Precipitation Wind Pressure Humidity
    00:00 +1°C° 0 mm 1 mps 596 mmHg 88%
    01:00 +1°C° 0 mm 1 mps 596 mmHg 85%
    02:00 0°C° 0 mm 1 mps 596 mmHg 80%
    03:00 0°C° 0 mm 1 mps 595 mmHg 75%
    04:00 0°C° 0 mm 1 mps 595 mmHg 70%
    05:00 +2°C° 0 mm 1 mps 596 mmHg 67%
    06:00 +3°C° 0 mm 0 mps 597 mmHg 64%
    07:00 +5°C° 0 mm 0 mps 597 mmHg 61%
    08:00 +8°C° 0 mm 1 mps 598 mmHg 58%
    09:00 +9°C° 0 mm 1 mps 598 mmHg 55%
    10:00 +11°C° 0 mm 1 mps 599 mmHg 52%
    11:00 +10°C° 0 mm 2 mps 599 mmHg 50%
    12:00 +12°C° 0 mm 2 mps 599 mmHg 49%
    13:00 +13°C° 0 mm 2 mps 599 mmHg 48%
    14:00 +12°C° 0 mm 2 mps 599 mmHg 50%
    15:00 +12°C° 0 mm 2 mps 598 mmHg 52%
    16:00 +11°C° 0 mm 3 mps 598 mmHg 55%
    17:00 +9°C° 0 mm 2 mps 597 mmHg 64%
    18:00 +8°C° 0 mm 2 mps 597 mmHg 73%
    19:00 +7°C° 0 mm 1 mps 596 mmHg 82%
    20:00 +6°C° 0 mm 1 mps 596 mmHg 86%
    21:00 +5°C° 0 mm 1 mps 595 mmHg 90%
    22:00 +3°C° 0 mm 1 mps 595 mmHg 94%
    23:00 +3°C° 0 mm 1 mps 595 mmHg 94%

    25 May, Saturday

    Time Temperature Precipitation Wind Pressure Humidity
    00:00 +3°C° 0 mm 1 mps 595 mmHg 94%
    01:00 +3°C° 0 mm 1 mps 595 mmHg 94%
    02:00 +3°C° 0 mm 1 mps 595 mmHg 93%
    03:00 +3°C° 0 mm 1 mps 595 mmHg 93%
    04:00 +3°C° 0 mm 1 mps 595 mmHg 92%
    05:00 +4°C° 0.2 mm 0 mps 595 mmHg 88%
    06:00 +5°C° 0.2 mm 0 mps 596 mmHg 84%
    07:00 +6°C° 0.2 mm 0 mps 597 mmHg 80%
    08:00 +7°C° 0.5 mm 0 mps 597 mmHg 78%
    09:00 +8°C° 0.5 mm 1 mps 597 mmHg 77%
    10:00 +9°C° 0.5 mm 1 mps 598 mmHg 76%
    11:00 +9°C° 0.7 mm 1 mps 598 mmHg 76%
    12:00 +10°C° 0.7 mm 1 mps 598 mmHg 77%
    13:00 +10°C° 0.7 mm 1 mps 598 mmHg 77%
    14:00 +9°C° 1.8 mm 1 mps 597 mmHg 83%
    15:00 +8°C° 1.8 mm 1 mps 597 mmHg 88%
    16:00 +7°C° 1.8 mm 1 mps 596 mmHg 93%
    17:00 +7°C° 1.9 mm 1 mps 596 mmHg 94%
    18:00 +6°C° 1.9 mm 1 mps 596 mmHg 96%
    19:00 +6°C° 1.9 mm 1 mps 596 mmHg 97%
    20:00 +5°C° 0.4 mm 1 mps 596 mmHg 96%
    21:00 +5°C° 0.4 mm 1 mps 596 mmHg 95%
    22:00 +3°C° 0.4 mm 0 mps 596 mmHg 95%
    23:00 +3°C° 0 mm 1 mps 596 mmHg 95%

    26 May, Sunday

    Time Temperature Precipitation Wind Pressure Humidity
    00:00 +3°C° 0 mm 1 mps 596 mmHg 95%
    01:00 +2°C° 0 mm 1 mps 595 mmHg 95%
    02:00 +2°C° 0 mm 1 mps 595 mmHg 95%
    03:00 +2°C° 0 mm 1 mps 595 mmHg 95%
    04:00 +2°C° 0 mm 1 mps 595 mmHg 95%
    05:00 +3°C° 0 mm 1 mps 596 mmHg 94%
    06:00 +5°C° 0 mm 1 mps 597 mmHg 92%
    07:00 +6°C° 0 mm 1 mps 597 mmHg 90%
    08:00 +8°C° 0 mm 1 mps 598 mmHg 83%
    09:00 +9°C° 0 mm 1 mps 598 mmHg 75%
    10:00 +11°C° 0 mm 1 mps 599 mmHg 67%
    11:00 +10°C° 0.1 mm 2 mps 599 mmHg 63%
    12:00 +12°C° 0.1 mm 2 mps 599 mmHg 59%
    13:00 +13°C° 0.1 mm 2 mps 599 mmHg 55%
    14:00 +13°C° 0.1 mm 2 mps 599 mmHg 59%
    15:00 +12°C° 0.1 mm 2 mps 599 mmHg 62%
    16:00 +12°C° 0.1 mm 2 mps 598 mmHg 66%
    17:00 +10°C° 0.2 mm 2 mps 598 mmHg 73%
    18:00 +8°C° 0.2 mm 2 mps 597 mmHg 80%
    19:00 +7°C° 0.2 mm 2 mps 597 mmHg 88%
    20:00 +7°C° 0.1 mm 1 mps 597 mmHg 91%
    21:00 +6°C° 0.1 mm 1 mps 597 mmHg 94%
    22:00 +4°C° 0.1 mm 0 mps 597 mmHg 97%
    23:00 +5°C° 0.1 mm 1 mps 597 mmHg 96%

    27 May, Monday

    Time Temperature Precipitation Wind Pressure Humidity
    00:00 +5°C° 0.1 mm 1 mps 596 mmHg 95%
    01:00 +5°C° 0.1 mm 1 mps 596 mmHg 94%
    02:00 +5°C° 0 mm 1 mps 596 mmHg 94%
    03:00 +5°C° 0 mm 1 mps 596 mmHg 94%
    04:00 +4°C° 0 mm 1 mps 596 mmHg 94%
    05:00 +6°C° 0 mm 1 mps 596 mmHg 89%
    06:00 +8°C° 0 mm 1 mps 597 mmHg 84%
    07:00 +9°C° 0 mm 1 mps 598 mmHg 79%
    08:00 +10°C° 0.2 mm 1 mps 598 mmHg 77%
    09:00 +11°C° 0.2 mm 1 mps 598 mmHg 74%
    10:00 +12°C° 0.2 mm 1 mps 599 mmHg 71%
    11:00 +12°C° 0.8 mm 1 mps 598 mmHg 74%
    12:00 +12°C° 0.8 mm 1 mps 598 mmHg 76%
    13:00 +12°C° 0.8 mm 1 mps 598 mmHg 78%
    14:00 +12°C° 1.1 mm 1 mps 597 mmHg 80%
    15:00 +12°C° 1.1 mm 1 mps 597 mmHg 81%
    16:00 +12°C° 1.1 mm 1 mps 597 mmHg 83%
    17:00 +11°C° 0.7 mm 1 mps 597 mmHg 87%
    18:00 +10°C° 0.7 mm 1 mps 596 mmHg 90%
    19:00 +9°C° 0.7 mm 1 mps 596 mmHg 94%
    20:00 +9°C° 0.3 mm 1 mps 596 mmHg 95%
    21:00 +8°C° 0.3 mm 1 mps 596 mmHg 96%
    22:00 +7°C° 0.3 mm 1 mps 596 mmHg 96%
    23:00 +7°C° 0.1 mm 1 mps 595 mmHg 97%
    Show more